This documentation is for Dovecot v1.x, see wiki2 for v2.x documentation.

[Show "Revision History"] [Show "General Page Infos"] [Show "Page hits and edits"]

Revision History

Showing page edit history entries from 173 to 272 out of 397 entries total. (5 | 10 | 25 | 50 | 100 | 200 items per page)

# Date Size Editor Comment Action
272 2007-03-16 14:35:33 5166 to previous TimoSirainen   view
271 2007-03-13 23:43:32 5257 to previous troyengel add thunderbird debug stublink view
270 2007-03-07 17:20:56 5192 to previous TimoSirainen   view
269 2007-03-06 15:41:05 5137 to previous TimoSirainen   view
268 2007-03-01 15:07:37 5119 to previous skdovecot   view
267 2007-03-01 12:11:26 5050 to previous TimoSirainen   view
266 2007-02-16 21:05:44 4920 to previous TimoSirainen   view
265 2007-01-18 14:32:48 4875 to previous TimoSirainen   view
264 2006-12-22 21:25:05 4820 to previous TimoSirainen   view
263 2006-12-22 21:23:43 4814 to previous TimoSirainen   view
262 2006-12-14 14:48:45 4773 to previous LeventeFarkas   view
261 2006-12-14 13:45:13 4759 to previous LeventeFarkas   view
260 2006-12-11 13:23:29 4633 to previous TimoSirainen   view
259 2006-12-11 05:22:48 4633 to previous James Turnbull   view
258 2006-11-05 19:13:11 4764 to previous TimoSirainen   view
257 2006-11-05 19:00:36 4655 to previous TimoSirainen I think this is good enough for a new front page now view
256 2006-11-05 16:20:00 3115 to previous TimoSirainen   view
255 2006-10-18 09:13:14 3099 to previous James Turnbull   view
254 2006-10-18 09:11:37 3094 to previous James Turnbull   view
253 2006-09-22 15:22:17 3048 to previous TimoSirainen   view
252 2006-07-13 09:38:12 2962 to previous JensNissen   view
251 2006-07-01 18:12:57 2936 to previous TimoSirainen   view
250 2006-06-17 14:52:17 2884 to previous TimoSirainen   view
249 2006-05-18 14:26:14 2855 to previous MatthiasAndree   view
248 2006-05-18 13:12:15 2797 to previous MatthiasAndree add a hr between TOC and Overview view
247 2006-05-18 13:06:12 2793 to previous MatthiasAndree Rearrange link and TOC view
246 2006-05-12 23:35:28 2736 to previous TimoSirainen   view
245 2006-05-12 22:32:37 2668 to previous TimoSirainen   view
244 2006-05-08 12:16:01 2646 to previous TimoSirainen   view
243 2006-05-02 08:59:24 2627 to previous TimoSirainen   view
242 2006-04-25 14:25:03 2607 to previous TimoSirainen   view
241 2006-04-13 10:31:46 2588 to previous danielwatts adding link for new section of example server setups - inspired by mail-list msg view
240 2006-04-08 18:21:37 2557 to previous RobMcGee   view
239 2006-02-28 07:59:58 2529 to previous TimoSirainen   view
238 2006-02-13 21:42:54 2479 to previous TimoSirainen   view
237 2005-12-27 22:26:35 2446 to previous TimoSirainen   view
236 2005-11-02 18:30:09 2428 to previous MarkPlaksin   view
235 2005-11-02 18:23:48 2453 to previous MarkPlaksin   view
234 2005-10-28 15:35:33 2428 to previous TimoSirainen   view
233 2005-09-18 16:12:32 2405 to previous TimoSirainen   view
232 2005-09-18 11:23:20 2362 to previous TimoSirainen   view
231 2005-09-18 11:17:13 2345 to previous TimoSirainen no such page view
230 2005-09-06 17:02:21 2405 to previous ip146 cleaning up more porn view
229 2005-09-06 12:31:20 10156 to previous 202   view
228 2005-08-29 16:21:54 2405 to previous MarcPerkel added odds and ends view
227 2005-08-23 15:25:01 2316 to previous h132n1fls31o263   view
226 2005-08-23 00:08:57 2256 to previous MarcPerkel   view
225 2005-08-22 22:42:30 2252 to previous bigdog Adding Config File Page view
224 2005-08-22 19:15:11 2176 to previous MarcPerkel Added PopRelay view
223 2005-08-21 20:45:56 2132 to previous MarcPerkel Testimonials Link view
222 2005-08-21 20:42:39 2095 to previous MarcPerkel   view
221 2005-08-21 20:42:07 2172 to previous MarcPerkel   view
220 2005-08-21 17:40:02 2128 to previous MarcPerkel   view
219 2005-08-21 17:30:14 2093 to previous MarcPerkel Creating a Features wiki page view
218 2005-08-14 17:08:27 2033 to previous TomiHakala   view
217 2005-08-11 21:29:56 2045 to previous 106   view
216 2005-08-11 19:41:01 31735 to previous 85   view
215 2005-06-05 10:32:05 2045 to previous denver   view
214 2005-06-02 14:00:47 1986 to previous 193   view
213 2005-06-02 13:12:47 2118 to previous rebekah castrize the offensive content view
212 2005-06-02 10:07:37 2118 to previous noc53   view
211 2005-04-22 18:27:59 1986 to previous TomiHakala   view
210 2005-04-22 18:27:19 1993 to previous TomiHakala   view
209 2005-04-22 18:26:41 1986 to previous TomiHakala   view
208 2005-03-14 12:31:08 1947 to previous JimTittsler   view
207 2005-03-14 12:30:48 1882 to previous JimTittsler   view
206 2005-03-14 12:17:33 1947 to previous JimTittsler   view
205 2005-03-14 12:12:15 1930 to previous JimTittsler start 0.99->1.0 upgrade notes view
204 2005-03-05 20:29:17 1882 to previous TimoSirainen   view
203 2005-03-05 20:28:36 1885 to previous TimoSirainen   view
202 2005-01-09 16:15:51 1811 to previous TomiHakala   view
201 2005-01-08 23:28:52 1814 to previous talvi   view
200 2005-01-08 22:30:59 1667 to previous TomiHakala   view
199 2005-01-08 22:30:46 1664 to previous TomiHakala   view
198 2005-01-08 22:26:29 1667 to previous TomiHakala   view
197 2005-01-08 22:14:58 1669 to previous TomiHakala   view
196 2005-01-08 22:13:57 1667 to previous TomiHakala   view
195 2005-01-08 22:13:26 1663 to previous TomiHakala   view
194 2005-01-08 22:12:42 1671 to previous TomiHakala   view
193 2005-01-08 22:11:15 1663 to previous TomiHakala   view
192 2004-12-22 16:05:14 1612 to previous cache82   view
191 2004-12-15 14:40:28 1606 to previous crystal Revert to revision 53. view
190 2004-12-15 14:40:25 1657 to previous crystal Revert to revision 54. view
189 2004-12-15 14:40:22 1732 to previous crystal Revert to revision 55. view
188 2004-12-15 14:40:12 1791 to previous crystal Revert to revision 56. view
187 2004-12-15 14:40:06 1889 to previous crystal Revert to revision 57. view
186 2004-12-15 14:40:05 1922 to previous crystal Revert to revision 58. view
185 2004-12-15 14:39:54 1824 to previous crystal Revert to revision 59. view
184 2004-12-15 14:39:50 1922 to previous crystal Revert to revision 60. view
183 2004-12-15 14:39:46 1889 to previous crystal Revert to revision 61. view
182 2004-12-15 14:39:44 1791 to previous crystal Revert to revision 62. view
181 2004-12-15 14:39:40 1732 to previous crystal Revert to revision 63. view
180 2004-12-15 14:39:33 1657 to previous crystal Revert to revision 64. view
179 2004-12-15 14:39:30 1606 to previous crystal Revert to revision 65. view
178 2004-12-15 14:39:26 1523 to previous crystal Revert to revision 66. view
177 2004-12-15 14:39:23 1398 to previous crystal Revert to revision 67. view
176 2004-12-15 14:39:19 1356 to previous crystal Revert to revision 68. view
175 2004-12-15 14:39:16 1313 to previous crystal Revert to revision 69. view
174 2004-12-15 14:39:15 1255 to previous crystal Revert to revision 70. view
173 2004-12-15 14:39:08 1215 to previous crystal Revert to revision 71. view